EW0435 Weather Reports


time (UTC)temp
F
wind
direction
speed
knots
gust
knots
rain 1hr
in
rain 24hr
in
rain mn
in
humidity
%
barometer
mb
20260903223503 55 139 0.0 0.9 0.00 0.28 0.27 80 1016.1
20260903222504 54 129 0.9 2.6 0.00 0.28 0.27 81 1015.9
20260903222005 54 125 0.9 2.6 0.00 0.28 0.27 81 1016.0
20260903221004 54 115 0.0 1.7 0.00 0.28 0.27 82 1016.2
20260903220504 54 95 0.0 2.6 0.00 0.28 0.27 83 1016.2
20260903215504 54 111 0.0 2.6 0.00 0.28 0.27 83 1016.4
20260903215005 54 133 0.0 1.7 0.00 0.28 0.27 82 1016.4
20260903214504 54 143 0.0 2.6 0.00 0.28 0.27 83 1016.5
20260903214004 54 129 0.0 0.9 0.00 0.28 0.27 82 1016.6
20260903213504 54 132 0.0 1.7 0.00 0.28 0.27 84 1016.6
20260903213004 54 144 0.0 1.7 0.00 0.28 0.27 84 1016.6
20260903212504 54 145 0.0 1.7 0.00 0.28 0.27 84 1016.5
20260903212004 54 136 0.9 2.6 0.00 0.28 0.27 83 1016.5
20260903211504 54 133 0.0 0.9 0.00 0.28 0.27 83 1016.6
20260903211004 53 115 0.0 0.9 0.00 0.28 0.27 84 1016.6
20260903210003 54 132 0.0 1.7 0.00 0.28 0.27 83 1016.6
20260903205504 54 121 0.0 0.9 0.00 0.28 0.27 85 1016.6
20260903204504 53 140 0.0 0.0 0.00 0.28 0.27 84 1016.6
20260903204004 53 111 0.0 0.9 0.00 0.28 0.27 86 1016.5
20260903203004 53 115 0.0 1.7 0.00 0.28 0.27 87 1016.7
20260903202005 52 130 0.0 1.7 0.00 0.28 0.27 86 1016.7
20260903201504 52 127 0.9 2.6 0.00 0.28 0.27 84 1016.8
20260903201004 52 134 0.0 1.7 0.00 0.28 0.27 86 1016.8
20260903200505 52 122 0.9 2.6 0.00 0.28 0.27 87 1016.8
20260903200004 52 102 0.0 2.6 0.00 0.28 0.27 89 1016.8
20260903195504 51 114 0.0 2.6 0.00 0.28 0.27 89 1016.8
20260903195004 51 133 0.0 1.7 0.00 0.28 0.27 88 1016.9
20260903194504 51 129 0.0 0.9 0.00 0.28 0.27 89 1017.0
20260903194004 51 99 0.0 0.9 0.00 0.28 0.27 89 1017.1
20260903193504 51 117 0.0 1.7 0.00 0.28 0.27 88 1017.1
20260903193004 51 133 0.0 1.7 0.00 0.28 0.27 89 1017.1
20260903192504 51 141 0.0 1.7 0.00 0.28 0.27 89 1017.1
20260903191504 51 129 0.9 2.6 0.00 0.28 0.27 88 1017.2
20260903191004 51 123 0.9 2.6 0.00 0.28 0.27 88 1017.2
20260903190004 52 123 0.0 1.7 0.00 0.28 0.27 86 1017.2
20260903185504 52 107 0.0 0.9 0.00 0.28 0.27 85 1017.3
20260903185004 52 100 0.0 1.7 0.00 0.28 0.27 87 1017.3
20260903184004 51 117 0.0 0.9 0.00 0.28 0.27 87 1017.4
20260903183503 51 118 0.0 1.7 0.00 0.28 0.27 87 1017.4
20260903182504 51 104 0.9 1.7 0.00 0.28 0.27 87 1017.3
20260903182004 51 102 0.0 1.7 0.00 0.28 0.27 87 1017.4
20260903181504 51 93 0.0 1.7 0.00 0.28 0.27 87 1017.4
20260903181004 51 109 0.0 0.0 0.00 0.28 0.27 87 1017.4
20260903180503 51 101 0.0 2.6 0.00 0.28 0.27 86 1017.3
20260903180004 51 100 0.0 0.0 0.00 0.28 0.27 87 1017.4
20260903175504 51 88 0.0 0.0 0.00 0.28 0.27 85 1017.4
20260903175003 52 78 0.0 0.9 0.00 0.28 0.27 86 1017.4
20260903174503 51 75 0.0 0.0 0.00 0.28 0.27 84 1017.4
20260903174004 51 90 0.0 0.0 0.00 0.28 0.27 83 1017.3
20260903173504 51 88 0.0 0.0 0.00 0.28 0.27 84 1017.2
20260903173004 51 90 0.0 0.0 0.00 0.28 0.27 83 1017.3
20260903172504 51 66 0.0 0.0 0.00 0.28 0.27 83 1017.3
20260903172004 51 62 0.0 0.0 0.00 0.28 0.27 84 1017.3
20260903171504 51 59 0.0 0.0 0.00 0.28 0.27 83 1017.3
20260903171004 51 56 0.0 0.0 0.00 0.28 0.27 85 1017.3
20260903170504 51 56 0.0 0.0 0.00 0.28 0.27 84 1017.3
20260903170004 51 52 0.0 0.0 0.00 0.28 0.27 84 1017.2
20260903165504 51 46 0.0 0.0 0.00 0.28 0.27 86 1017.3
20260903165004 51 44 0.0 0.0 0.00 0.28 0.27 87 1017.2
20260903164504 51 42 0.0 0.0 0.00 0.28 0.27 88 1017.1
20260903163504 51 42 0.0 0.0 0.00 0.29 0.27 89 1017.1
20260903163004 50 350 0.0 0.0 0.00 0.29 0.27 88 1017.1
20260903162004 50 350 0.0 0.0 0.01 0.30 0.27 89 1017.0
20260903161504 50 350 0.0 0.0 0.01 0.30 0.27 89 1017.1
20260903161004 49 349 0.0 0.0 0.01 0.31 0.27 90 1017.0
20260903160504 49 330 0.0 0.0 0.01 0.31 0.27 90 1017.0
20260903160004 49 330 0.0 0.0 0.01 0.32 0.27 91 1016.9
20260903155504 49 330 0.0 0.0 0.01 0.32 0.27 92 1017.0
20260903155004 49 329 0.0 0.0 0.02 0.33 0.27 92 1017.0
20260903154504 49 329 0.0 0.0 0.02 0.33 0.27 92 1017.0
20260903154004 49 329 0.0 0.0 0.02 0.33 0.27 92 1017.0
20260903153504 49 329 0.0 0.0 0.02 0.33 0.27 92 1017.0
20260903153004 49 329 0.0 0.0 0.02 0.33 0.27 92 1017.0
20260903152504 49 329 0.0 0.0 0.01 0.32 0.26 93 1016.9
20260903152004 49 328 0.0 0.0 0.01 0.33 0.26 93 1016.9
20260903151504 49 328 0.0 0.0 0.01 0.33 0.26 93 1016.9
20260903151004 49 328 0.0 0.0 0.01 0.33 0.26 93 1016.9
20260903150504 49 327 0.0 0.0 0.01 0.33 0.26 93 1016.8
20260903150004 48 327 0.0 0.0 0.01 0.34 0.26 93 1016.8
20260903145505 48 327 0.0 0.0 0.01 0.34 0.26 93 1016.7
20260903144504 48 327 0.0 0.0 0.00 0.33 0.25 93 1016.9
20260903144004 48 327 0.0 0.0 0.00 0.33 0.25 93 1016.7
20260903143504 48 327 0.0 0.0 0.00 0.33 0.25 93 1016.6
20260903143004 48 325 0.0 0.0 0.00 0.33 0.25 93 1016.5
20260903142504 48 324 0.0 0.9 0.00 0.33 0.25 93 1016.5
20260903141503 48 322 0.0 0.0 0.00 0.33 0.25 93 1016.5
20260903141004 48 319 0.0 0.0 0.00 0.33 0.25 93 1016.4
20260903140504 48 316 0.0 0.0 0.00 0.33 0.25 93 1016.5
20260903140005 48 318 0.0 0.9 0.00 0.33 0.25 93 1016.4
20260903135504 48 325 0.0 0.0 0.00 0.33 0.25 93 1016.4
20260903135004 48 322 0.0 0.0 0.01 0.33 0.25 93 1016.4
20260903134504 48 321 0.0 0.0 0.01 0.33 0.25 92 1016.4
20260903134004 48 320 0.0 0.0 0.01 0.33 0.25 92 1016.3
20260903133504 48 319 0.0 0.0 0.01 0.33 0.25 92 1016.2
20260903132504 48 317 0.0 0.0 0.01 0.33 0.25 92 1016.1
20260903132004 48 317 0.0 0.0 0.01 0.33 0.25 92 1016.0
20260903131504 48 317 0.0 0.0 0.01 0.33 0.25 91 1016.0
20260903131005 48 317 0.0 0.0 0.01 0.33 0.25 91 1016.0
20260903130504 48 317 0.0 0.0 0.01 0.33 0.25 91 1016.0
20260903125504 49 316 0.0 0.0 0.01 0.33 0.25 91 1015.8
20260903125004 49 293 0.0 0.0 0.00 0.32 0.24 91 1015.7
20260903124504 49 293 0.0 0.0 0.00 0.32 0.24 91 1015.8
20260903124004 49 293 0.0 0.0 0.00 0.32 0.24 91 1015.8
20260903123504 49 293 0.0 0.0 0.01 0.32 0.24 91 1015.8
20260903122005 49 293 0.0 0.0 0.01 0.32 0.24 91 1015.6
20260903121504 49 293 0.0 0.0 0.01 0.32 0.24 91 1015.6
20260903121004 49 293 0.0 0.0 0.01 0.32 0.24 91 1015.7
20260903120504 49 293 0.0 0.0 0.01 0.32 0.24 90 1015.6
20260903120004 49 293 0.0 0.0 0.01 0.32 0.24 90 1015.6
20260903115504 49 293 0.0 0.0 0.01 0.32 0.24 90 1015.6
20260903114503 49 293 0.0 0.0 0.01 0.32 0.24 90 1015.6
20260903114004 49 293 0.0 0.0 0.01 0.32 0.24 90 1015.7
20260903113004 49 293 0.0 0.0 0.00 0.31 0.23 91 1015.6
20260903112504 49 293 0.0 0.0 0.00 0.31 0.23 90 1015.6
20260903112004 49 293 0.0 0.0 0.00 0.31 0.23 90 1015.5
20260903111504 49 293 0.0 0.0 0.00 0.31 0.23 90 1015.4
20260903111004 49 293 0.0 0.0 0.00 0.31 0.23 90 1015.4
20260903110504 49 293 0.0 0.0 0.00 0.31 0.23 91 1015.3
20260903110003 49 293 0.0 0.0 0.00 0.31 0.23 91 1015.3
20260903105504 49 355 0.0 0.0 0.00 0.31 0.23 92 1015.3
20260903104504 49 355 0.0 0.0 0.00 0.31 0.23 91 1015.3
20260903103504 49 355 0.0 0.0 0.01 0.31 0.23 92 1015.3
20260903103004 49 355 0.0 0.0 0.01 0.31 0.23 92 1015.3
20260903102003 49 355 0.0 0.0 0.02 0.31 0.23 92 1015.3
20260903101504 49 355 0.0 0.0 0.03 0.31 0.23 93 1015.3
20260903101004 49 355 0.0 0.0 0.03 0.31 0.23 93 1015.2
20260903100504 49 5 0.0 0.0 0.03 0.31 0.23 93 1015.2
20260903100004 49 5 0.0 0.0 0.03 0.31 0.23 93 1015.2
20260903095504 49 5 0.0 0.0 0.03 0.31 0.23 93 1015.1
20260903095005 49 5 0.0 0.0 0.04 0.31 0.23 93 1015.1
20260903094504 49 5 0.0 0.0 0.04 0.31 0.23 93 1015.1
20260903094004 49 5 0.0 0.0 0.04 0.30 0.22 93 1015.1
20260903093504 49 5 0.0 0.0 0.04 0.30 0.22 93 1015.1
20260903093004 49 5 0.0 0.0 0.05 0.30 0.22 93 1015.2
20260903092504 50 5 0.0 0.0 0.04 0.29 0.21 93 1015.1
20260903091503 50 5 0.0 0.0 0.06 0.28 0.20 93 1015.2
20260903091004 50 5 0.0 0.0 0.07 0.28 0.20 93 1015.2
20260903090504 50 5 0.0 0.0 0.09 0.28 0.20 93 1015.1
20260903090004 50 5 0.0 0.0 0.10 0.28 0.20 93 1015.2
20260903085504 50 5 0.0 0.0 0.12 0.28 0.20 93 1015.3
20260903085005 50 5 0.0 0.0 0.12 0.27 0.19 93 1015.3
20260903083503 50 5 0.0 0.0 0.15 0.26 0.18 93 1015.3
20260903083004 50 5 0.0 0.0 0.14 0.25 0.17 93 1015.4
20260903082504 50 5 0.0 0.0 0.15 0.25 0.17 93 1015.4
20260903082004 50 5 0.0 0.0 0.14 0.23 0.15 93 1015.5
20260903081503 50 5 0.0 0.0 0.13 0.22 0.14 93 1015.5
20260903081004 50 5 0.0 0.0 0.12 0.21 0.13 93 1015.5
20260903080504 50 5 0.0 0.0 0.11 0.19 0.11 93 1015.4
20260903080004 50 5 0.0 0.0 0.10 0.18 0.10 92 1015.4
20260903075504 50 5 0.0 0.0 0.08 0.16 0.08 92 1015.3
20260903075004 50 5 0.0 0.0 0.07 0.15 0.07 92 1015.3
20260903074004 50 5 0.0 0.0 0.06 0.13 0.05 92 1015.2
20260903073504 50 5 0.0 0.0 0.04 0.11 0.03 92 1015.2
20260903072004 50 5 0.0 0.0 0.02 0.09 0.01 91 1015.1
20260903071503 50 0 0.0 0.0 0.02 0.09 0.01 90 1015.1
20260903071004 51 355 0.0 0.0 0.02 0.09 0.01 90 1015.1
20260903070504 51 355 0.0 0.0 0.01 0.08 0.00 89 1015.0
20260903070004 51 355 0.0 0.0 0.01 0.08 0.00 89 1014.9
20260903064004 52 31 0.0 0.0 0.00 0.07 0.07 86 1014.6
20260903063504 52 355 0.0 0.0 0.00 0.07 0.07 85 1014.7
20260903063004 52 17 0.0 0.0 0.00 0.07 0.07 83 1015.0
20260903062504 52 26 0.0 0.0 0.00 0.07 0.07 82 1014.8
20260903062004 52 32 0.0 0.0 0.00 0.07 0.07 82 1014.6
20260903061504 52 355 0.0 0.0 0.00 0.07 0.07 82 1014.7
20260903060504 52 334 0.0 1.7 0.00 0.07 0.07 81 1014.4
20260903060004 53 339 0.0 0.0 0.00 0.07 0.07 81 1014.5
20260903055505 53 331 0.0 0.0 0.00 0.07 0.07 81 1014.5
20260903055004 53 346 0.0 0.0 0.00 0.07 0.07 81 1014.6
20260903054504 53 338 0.0 0.0 0.00 0.07 0.07 81 1014.6
20260903054004 53 346 0.0 0.0 0.00 0.07 0.07 81 1014.7
20260903053504 53 338 0.0 0.0 0.00 0.07 0.07 81 1014.7
20260903053004 53 329 0.0 0.0 0.00 0.07 0.07 80 1014.8
20260903052504 53 328 0.0 0.0 0.00 0.07 0.07 80 1014.8
20260903052004 53 321 0.0 0.9 0.00 0.07 0.07 80 1014.9
20260903051504 53 324 0.0 0.0 0.00 0.07 0.07 80 1014.9
20260903051004 53 359 0.0 0.0 0.00 0.07 0.07 80 1014.8
20260903050004 54 321 0.0 0.9 0.00 0.07 0.07 79 1014.8
20260903045004 54 318 0.0 2.6 0.00 0.07 0.07 79 1014.7
20260903044504 54 311 0.9 2.6 0.00 0.07 0.07 78 1014.6
20260903044004 54 308 0.9 4.3 0.00 0.07 0.07 78 1014.6
20260903043504 54 318 0.9 4.3 0.00 0.07 0.07 78 1014.6
20260903043004 54 313 0.9 4.3 0.00 0.07 0.07 78 1014.7
20260903042504 54 320 0.0 2.6 0.00 0.07 0.07 78 1014.7
20260903042004 54 317 0.9 2.6 0.00 0.07 0.07 78 1014.7
20260903041504 54 307 0.9 2.6 0.00 0.07 0.07 77 1014.7
20260903041004 55 316 0.0 2.6 0.00 0.07 0.07 77 1014.7
20260903040504 55 309 0.9 2.6 0.00 0.07 0.07 76 1014.6
20260903040004 55 312 0.9 2.6 0.00 0.07 0.07 76 1014.6
20260903035504 55 305 0.9 2.6 0.00 0.07 0.07 76 1014.5
20260903035005 56 309 1.7 7.0 0.00 0.07 0.07 75 1014.5
20260903034504 56 308 0.9 5.2 0.00 0.07 0.07 75 1014.4
20260903034004 56 304 1.7 7.0 0.00 0.07 0.07 74 1014.4
20260903033504 57 310 1.7 7.0 0.00 0.07 0.07 73 1014.4
20260903032005 58 304 0.9 6.1 0.00 0.07 0.07 69 1014.1
20260903031504 59 301 0.9 2.6 0.00 0.07 0.07 67 1014.0
20260903031004 59 309 0.0 1.7 0.00 0.07 0.07 67 1013.8
20260903030505 59 313 0.0 1.7 0.00 0.07 0.07 67 1013.8
20260903030004 59 311 0.0 2.6 0.00 0.07 0.07 66 1013.8
20260903025503 59 308 0.9 2.6 0.00 0.07 0.07 67 1013.7
20260903025003 59 317 0.0 2.6 0.00 0.07 0.07 67 1013.7
20260903024504 59 312 0.0 2.6 0.00 0.07 0.07 67 1013.8
20260903023504 60 313 1.7 5.2 0.00 0.07 0.07 66 1013.8
20260903023004 60 308 0.9 2.6 0.00 0.07 0.07 67 1013.8
20260903022504 60 316 0.0 2.6 0.00 0.07 0.07 66 1013.7
20260903022004 61 320 0.0 1.7 0.00 0.07 0.07 69 1013.7
20260903021004 62 2 0.0 0.0 0.00 0.07 0.07 67 1013.5
20260903020504 62 65 0.0 0.0 0.00 0.07 0.07 67 1013.4
20260903020004 62 65 0.0 0.0 0.00 0.07 0.07 66 1013.4
20260903015004 63 70 0.0 0.0 0.00 0.07 0.07 65 1013.5
20260903014504 63 72 0.0 0.0 0.00 0.07 0.07 65 1013.4
20260903014003 63 71 0.0 0.0 0.00 0.07 0.07 65 1013.5
20260903013503 63 71 0.0 0.0 0.00 0.07 0.07 65 1013.4
20260903013004 63 71 0.0 0.0 0.00 0.07 0.07 64 1013.4
20260903012004 63 71 0.0 0.0 0.00 0.07 0.07 64 1013.3
20260903011504 63 71 0.0 0.0 0.00 0.07 0.07 64 1013.3
20260903011004 63 71 0.0 0.0 0.00 0.07 0.07 64 1013.3
20260903010504 63 72 0.0 0.0 0.00 0.07 0.07 64 1013.3
20260903010004 64 73 0.0 0.0 0.00 0.07 0.07 63 1013.3
20260903005504 63 73 0.0 0.0 0.00 0.07 0.07 64 1013.3
20260903005004 63 10 0.0 0.0 0.00 0.07 0.07 64 1013.2
20260903004504 63 84 0.0 0.0 0.00 0.07 0.07 63 1013.3
20260903004004 64 80 0.0 0.0 0.00 0.07 0.07 63 1013.3
20260903003504 63 76 0.0 0.0 0.00 0.07 0.07 63 1013.4
20260903003004 64 58 0.0 0.0 0.00 0.07 0.07 63 1013.3
20260903002504 64 59 0.0 0.0 0.00 0.07 0.07 62 1013.4
20260903002004 64 55 0.0 0.0 0.00 0.07 0.07 62 1013.5
20260903001504 64 56 0.0 0.0 0.00 0.07 0.07 61 1013.5
20260903001003 64 55 0.0 0.9 0.00 0.07 0.07 60 1013.4
20260903000004 64 52 0.0 0.0 0.00 0.07 0.07 61 1013.5
20260902235504 64 79 0.0 0.0 0.00 0.07 0.07 62 1013.5
20260902235004 63 64 0.0 1.7 0.00 0.07 0.07 62 1013.4
20260902234504 64 69 0.0 1.7 0.00 0.07 0.07 62 1013.4
20260902234004 64 87 0.0 0.9 0.00 0.07 0.07 63 1013.4
20260902233504 64 70 0.0 0.9 0.00 0.07 0.07 62 1013.5
20260902233004 64 71 0.0 0.9 0.00 0.07 0.07 62 1013.5
20260902232504 64 61 0.0 0.9 0.00 0.07 0.07 62 1013.5
20260902232004 64 63 0.0 1.7 0.00 0.07 0.07 61 1013.5
20260902231004 64 82 0.0 2.6 0.00 0.07 0.07 62 1013.5
20260902230504 64 64 0.0 1.7 0.00 0.07 0.07 61 1013.5
20260902230004 65 92 0.0 0.9 0.00 0.07 0.07 62 1013.5
20260902225504 64 99 0.0 2.6 0.00 0.07 0.07 60 1013.4
20260902225004 64 93 0.0 1.7 0.00 0.07 0.07 64 1013.5